AO-07 1 07530U 74089B 17081.88297604 -.00000025 00000-0 11980-3 0 9994 2 07530 101.6205 052.3033 0012293 128.3407 259.6083 12.53626092938043 UO-11 1 14781U 84021B 17081.59412509 .00000126 00000-0 21856-4 0 9993 2 14781 097.7091 130.4467 0009868 119.3209 240.8992 14.82870369756513 LO-19 1 20442U 90005G 17081.41452241 .00000017 00000-0 22121-4 0 9996 2 20442 098.5696 018.8395 0012692 047.8922 312.3339 14.32852417419198 HUBBLE 1 20580U 90037B 17081.83418372 .00000696 00000-0 32093-4 0 9999 2 20580 028.4693 218.1001 0002664 329.1105 167.1026 15.08707767277233 MET-2/21 1 22782U 93055A 17081.62991296 .00000036 00000-0 19614-4 0 9998 2 22782 082.5457 092.2800 0021472 316.5110 172.3821 13.83797331189454 AO-27 1 22825U 93061C 17081.84963317 .00000020 00000-0 25310-4 0 9993 2 22825 098.8020 046.4179 0007645 218.1235 141.9406 14.29989536224798 IO-26 1 22826U 93061D 17081.90049244 .00000021 00000-0 25741-4 0 9994 2 22826 098.7963 046.5614 0008305 208.0863 151.9872 14.30317538224997 FO-29 1 24278U 96046B 17081.94393161 -.00000060 00000-0 -24355-4 0 9992 2 24278 098.5764 336.6289 0349994 200.6619 158.0068 13.53074978016960 NOAA-15 1 25338U 98030A 17081.89827641 .00000043 00000-0 37149-4 0 9998 2 25338 098.7851 092.6253 0011720 097.0845 263.1667 14.25782056980448 GO-32 1 25397U 98043D 17081.88700912 -.00000010 00000-0 14571-4 0 9996 2 25397 098.6020 026.0804 0000349 190.5198 169.5974 14.23617524971296 ISS 1 25544U 98067A 17081.94505660 .00001086 00000-0 23612-4 0 9995 2 25544 051.6417 108.1921 0007084 326.6531 113.2343 15.54234604048343 NO-44 1 26931U 01043C 17081.82824488 -.00000014 00000-0 26297-4 0 9996 2 26931 067.0515 314.0143 0007532 278.0979 081.9268 14.30451645807925 SO-50 1 27607U 02058C 17081.84754067 .00000059 00000-0 29066-4 0 9996 2 27607 064.5567 029.3933 0034766 137.9726 222.4053 14.75296623766245 CO-55 1 27844U 03031E 17081.95257677 .00000079 00000-0 55376-4 0 9993 2 27844 098.6920 092.2064 0008822 232.6290 127.4085 14.22022582712025 CO-57 1 27848U 03031J 17081.01407913 .00000052 00000-0 43789-4 0 9990 2 27848 098.7016 091.5026 0008590 245.9434 114.0845 14.21638869711783 RS-22 1 27939U 03042A 17081.94557517 .00000186 00000-0 41962-4 0 9990 2 27939 097.9247 229.5350 0014030 136.1135 337.4627 14.66535654720538 NOAA-18 1 28654U 05018A 17081.90842091 .00000043 00000-0 48663-4 0 9997 2 28654 099.1894 101.9857 0013531 316.6237 043.3868 14.12329429609980 CO-58 1 28895U 05043F 17081.88307262 .00000195 00000-0 46258-4 0 9991 2 28895 097.8542 248.2018 0017988 059.6364 300.6615 14.63359323607632 CO-65 1 32785U 08021C 17081.48733861 .00000339 00000-0 42721-4 0 9998 2 32785 097.5750 109.6846 0014754 095.5596 264.7304 14.87822313481934 AAUSAT2 1 32788U 08021F 17081.89078263 .00000521 00000-0 54307-4 0 9990 2 32788 097.5693 121.0875 0013381 063.4494 296.8096 14.93738221482698 DO-64 1 32789U 08021G 17081.90815178 .00002598 00000-0 18937-3 0 9991 2 32789 097.5693 141.9313 0013515 041.0704 319.1538 15.04535463483790 CO-66 1 32791U 08021J 17081.08637138 .00000426 00000-0 49476-4 0 9992 2 32791 097.5729 113.3931 0015091 084.2292 276.0647 14.90126939482096 RS-30 1 32953U 08025A 17081.92314384 .00000024 00000-0 97803-4 0 9995 2 32953 082.4999 293.3069 0019604 112.7537 247.5617 12.43075291400700 PRISM 1 33493U 09002B 17081.85784785 .00000120 00000-0 16630-4 0 9995 2 33493 098.1806 320.5953 0016198 011.9259 348.2355 14.95512463442870 NOAA-19 1 33591U 09005A 17081.90053774 .00000140 00000-0 10125-3 0 9994 2 33591 099.0827 047.5471 0014392 151.1516 209.0454 14.12163508418216 TISAT-1 1 36799U 10035E 17081.80217292 .00000710 00000-0 79107-4 0 9997 2 36799 098.0496 202.8493 0011232 247.7565 112.2461 14.90274682362714 JUGNU 1 37839U 11058B 17081.83727189 .00000324 00000-0 30799-4 0 9998 2 37839 019.9610 254.0572 0019018 311.8146 185.2273 14.12575544281474 SRMSAT 1 37841U 11058D 17081.91693272 .00000325 00000-0 33451-4 0 9994 2 37841 019.9724 293.4828 0011820 213.5330 276.6713 14.10567915280991 AO-71 1 37854U 11061E 17081.82960779 .00001295 00000-0 77656-4 0 9993 2 37854 101.7115 271.5022 0168519 330.5200 028.6587 15.03735021293958 HRBE 1 37855U 11061F 17081.44681344 .00001648 00000-0 94655-4 0 9990 2 37855 101.7245 268.7847 0181781 337.6402 021.6955 15.02690005293294 ALMASAT-1 1 38078U 12006B 17081.89660383 .00033408 37228-5 40684-3 0 9995 2 38078 069.4359 003.9385 0321874 057.5122 305.6720 15.17847815271672 HORYU-2 1 38340U 12025D 17081.95218348 .00000315 00000-0 54679-4 0 9999 2 38340 098.3759 082.8427 0011147 200.1966 159.8803 14.75276986250163 RS-40 1 38735U 12041C 17081.89550442 .00000014 00000-0 33886-4 0 9995 2 38735 082.4803 017.9886 0015843 214.0024 146.0041 12.42573153210952 BEESAT-3 1 39134U 13015E 17081.56322324 .00001920 00000-0 10435-3 0 9992 2 39134 064.8676 145.9832 0031579 292.1664 067.6111 15.17427372216332 BEESAT-2 1 39136U 13015G 17081.56682375 .00001483 00000-0 89225-4 0 9997 2 39136 064.8698 155.4800 0028714 295.7122 064.1039 15.14787492215760 ZACUBE-1 1 39417U 13066B 17081.93069027 .00000321 00000-0 47205-4 0 9991 2 39417 097.6409 128.3084 0059265 190.6454 169.3509 14.80644393180018 TRITON-1 1 39427U 13066M 17081.93271212 .00000283 00000-0 53796-4 0 9992 2 39427 097.6437 103.0474 0112940 264.9639 093.8667 14.67403127178200 GOMX-1 1 39430U 13066Q 17081.95575238 .00000330 00000-0 69538-4 0 9997 2 39430 097.6647 087.5717 0150951 315.7973 043.1247 14.58814276177171 LO-74 1 39440U 13066AA 17081.91161165 .00000283 00000-0 46911-4 0 9991 2 39440 097.6389 118.1530 0079985 219.3962 140.1414 14.75388769178170 AO-73 1 39444U 13066AE 17081.61484173 .00000378 00000-0 53522-4 0 9990 2 39444 097.6425 128.9511 0058514 188.7184 171.3018 14.81361425178200 SPROUT 1 39770U 14029E 17081.78038709 .00000593 00000-0 74001-4 0 9994 2 39770 097.8685 182.0312 0007761 246.2540 113.7882 14.86047807153309 DUCHIFAT-1 1 40021U 14033M 17081.72568295 .00000561 00000-0 64468-4 0 9993 2 40021 097.9222 354.7550 0011967 222.0177 138.0123 14.89770916149727 NANOSATCBR1 1 40024U 14033Q 17081.82344888 .00000553 00000-0 64543-4 0 9992 2 40024 097.9187 353.8731 0011252 222.2181 137.8170 14.89113022149172 EO-79 1 40025U 14033R 17081.69009091 .00000419 00000-0 51318-4 0 9999 2 40025 097.9172 352.9061 0011414 225.5214 134.5070 14.88336275149625 DTUSAT-2 1 40030U 14033W 17081.27000447 .00000397 00000-0 49373-4 0 9998 2 40030 097.9142 351.6872 0010944 220.3290 139.7115 14.87961331149014 EO-80 1 40032U 14033Y 17081.77915789 .00000393 00000-0 48996-4 0 9995 2 40032 097.9148 352.2023 0010936 219.1642 140.8784 14.87895661149078 ANTELSAT 1 40034U 14033AA 17081.91608051 .00000288 00000-0 50786-4 0 9997 2 40034 097.8715 328.4646 0058291 209.2388 150.5554 14.73633486147686 VELOX-1 1 40057U 14034E 17081.85936219 .00000318 00000-0 52672-4 0 9996 2 40057 098.1854 180.8056 0010303 342.8658 017.2192 14.77034091147015 DAURIA DX 1 1 40071U 14037C 17081.71864192 .00000114 00000-0 22086-4 0 9990 2 40071 098.3288 189.3962 0008198 340.5246 019.5659 14.80974992146177 UKUBE-1 1 40074U 14037F 17081.75362670 .00000309 00000-0 44756-4 0 9995 2 40074 098.3372 192.8439 0004069 349.4460 010.6680 14.83409975146365 HODOYOSHI-1 1 40299U 14070B 17081.87234420 .00000660 00000-0 31856-4 0 9992 2 40299 097.4060 165.9185 0014702 040.4681 023.8969 15.22065708131811 CHUBUSAT-1 1 40300U 14070C 17081.83140731 .00000671 00000-0 33545-4 0 9991 2 40300 097.3995 163.2984 0022031 048.0274 061.7901 15.20647213131669 QSAT-EOS 1 40301U 14070D 17081.67938051 .00001561 00000-0 69177-4 0 9993 2 40301 097.3932 162.9823 0029319 044.1331 110.2430 15.22752170131664 FIREBIRD FU3 1 40377U 15003B 17081.88999173 .00003206 00000-0 14156-3 0 9992 2 40377 099.1163 248.6981 0136899 288.2852 070.3520 15.14740146117932 FIREBIRD FU4 1 40378U 15003C 17081.94946563 .00002700 00000-0 11984-3 0 9999 2 40378 099.1171 248.8005 0137151 288.0058 070.6263 15.14762303117946 GRIFEX 1 40379U 15003D 17081.93100246 .00002061 00000-0 97588-4 0 9994 2 40379 099.1179 246.9176 0142529 294.6343 064.0092 15.12475415117836 NO-84 1 40654U 15025D 17082.48883712 .00011149 00000-0 21127-3 0 03964 2 40654 054.9931 259.2178 0188776 051.3061 310.4887 15.31879819066756 NO-83 1 40655U 15025E 17082.43734856 .00015870 00000-0 25097-3 0 04375 2 40655 054.9792 240.4045 0160865 061.8001 299.9371 15.40348067066997 DEORBITSAIL 1 40719U 15032E 17081.82323707 .00000554 00000-0 87877-4 0 9996 2 40719 097.9903 336.6188 0017962 062.7948 297.5089 14.75948971091584 NUDT-PHONESAT 1 40900U 15049B 17081.94998045 .00004100 00000-0 19957-3 0 9996 2 40900 097.4452 091.1220 0014921 159.6751 200.5081 15.18846134083369 XW-2A 1 40903U 15049E 17081.94292723 .00003701 00000-0 10023-3 0 9990 2 40903 097.4297 106.5747 0014195 209.5692 150.4752 15.38240018084388 XW-2C 1 40906U 15049H 17081.94980969 .00001115 00000-0 64228-4 0 9993 2 40906 097.4559 089.1726 0016212 147.9827 212.2393 15.14337442083189 XW-2D 1 40907U 15049J 17081.93872995 .00001178 00000-0 67502-4 0 9999 2 40907 097.4527 088.9467 0015628 146.1495 214.0737 15.14427433083188 LILACSAT-2 1 40908U 15049K 17081.85153107 .00000617 00000-0 38519-4 0 9991 2 40908 097.4630 088.7147 0017195 144.5663 215.6714 15.12997000083112 XW-2F 1 40910U 15049M 17081.85652929 .00001706 00000-0 94045-4 0 9996 2 40910 097.4551 089.4161 0016567 144.7777 215.4554 15.15214317083083 XW-2B 1 40911U 15049N 17081.94280334 .00001164 00000-0 66826-4 0 9998 2 40911 097.4572 089.2821 0015518 146.4086 213.8133 15.14394456083082 DCBB 1 40912U 15049P 17081.76891115 .00001027 00000-0 54795-4 0 9994 2 40912 097.4532 090.9224 0017101 137.7570 308.6243 15.17272063083184 TW-1C 1 40926U 15051B 17081.82558650 .00005667 00000-0 13811-3 0 9990 2 40926 097.2405 122.0872 0014278 118.8732 327.7138 15.41203099083617 TW-1A 1 40928U 15051D 17081.82559944 .00002754 00000-0 82304-4 0 9997 2 40928 097.2376 119.1850 0014261 141.9735 336.2675 15.35342890083449 IO-86 1 40931U 15052B 17077.52886458 .00000768 00000-0 17998-4 0 9997 2 40931 006.0005 159.0747 0012964 040.2673 319.8867 14.76516958079546 GomX-3 1 40949U 98067HA 16292.18357804 .08527750 12374-4 77882-3 0 9992 2 40949 51.6055 106.7696 0006699 286.1344 73.8944 16.38002265 59645 LQSat 1 40958U 15057A 17081.83909063 .00000000 00000-0 78777-5 0 9990 2 40958 097.9834 158.6405 0018128 347.5419 012.5328 14.72949274078409 AO-85 1 40967U 15058D 17082.42410722 .00000120 00000-0 33245-4 0 04343 2 40967 064.7824 119.0184 0174093 110.1161 251.8857 14.75351114064466 ATHENOXAT-1 1 41168U 15077C 17081.19175006 .00002075 00000-0 80888-4 0 9996 2 41168 014.9841 084.8395 0011952 251.2242 030.3763 15.11235566069857 ChubuSat-2 1 41338U 16012B 17081.89416668 .00000505 00000-0 33031-4 0 9998 2 41338 031.0037 300.2890 0014124 285.0004 074.9068 14.99673671060023 ChubuSat-3 1 41339U 16012C 17081.76777909 .00000353 00000-0 20940-4 0 9999 2 41339 031.0117 300.3802 0013902 290.5286 069.3851 14.99883420059989 Horyu-4 1 41340U 16012D 17081.91071437 .00000760 00000-0 52102-4 0 9998 2 41340 031.0055 297.5212 0014452 298.9011 061.0175 15.00484010060045 OUFTI-1 1 41458U 16025C 17081.89529082 .00002152 00000-0 11991-3 0 9990 2 41458 098.1949 114.5072 0175443 217.6385 141.2460 15.02727691049629 e-st@r-II 1 41459U 16025D 17081.90807650 .00001806 00000-0 10158-3 0 9992 2 41459 098.1927 114.4833 0176217 217.7836 141.0912 15.02581170049611 AAUSAT4 1 41460U 16025E 17081.88544279 .00001823 00000-0 10296-3 0 9998 2 41460 098.1905 114.5317 0169025 216.2546 142.7137 15.03324942049629 MinXSS 1 41474U 98067HU 17081.45261513 .00130528 00000-0 55324-3 0 9995 2 41474 051.6450 082.5348 0004537 075.2777 284.8729 15.84425021048584 CADRE 1 41475U 98067HV 17003.74787607 .12518598 12537-4 55989-3 0 9998 2 41475 51.6110 110.0165 0004040 312.3134 47.7551 16.43344525 36494 NODES 1 1 41477U 98067HX 17081.40709812 .00058312 00000-0 43082-3 0 9990 2 41477 051.6335 091.1600 0003774 073.3726 286.7686 15.72387851048376 NODES 2 1 41478U 98067HY 17081.49128447 .00051906 00000-0 38835-3 0 9991 2 41478 051.6339 090.9710 0003713 074.1722 285.9685 15.72139143048388 LO-87 1 41557U 16033B 17081.90054586 .00002029 00000-0 80017-4 0 9992 2 41557 097.4683 161.4178 0013194 316.5195 043.5002 15.26681994045269 NuSat2 1 41558U 16033C 17081.86097704 .00002002 00000-0 79309-4 0 9990 2 41558 097.4709 161.4172 0012672 315.4870 044.5350 15.26559758045259 Lapan A3 1 41603U 16040E 17081.77313336 .00000194 00000-0 12435-4 0 9998 2 41603 097.4714 144.7414 0014483 022.5594 105.7843 15.19287261041533 Swayam 1 41607U 16040J 17081.85855250 .00002418 00000-0 11397-3 0 9993 2 41607 097.4705 144.9640 0015024 024.6465 335.5485 15.20374238041484 Pratham 1 41783U 16059A 17081.76989438 .00000091 00000-0 27059-4 0 9992 2 41783 098.1773 143.9930 0034893 072.7399 287.7616 14.62814214025965 AlSat 1N 1 41789U 16059G 17081.82968935 .00000067 00000-0 21939-4 0 9998 2 41789 098.1774 144.3876 0029828 067.3600 293.0739 14.64019347025976 ScatSat 1 41790U 16059H 17081.73594186 .00000022 00000-0 16431-4 0 9995 2 41790 098.0766 135.3924 0012260 057.7312 302.5069 14.50098248025735 TY-1 1 41844U 16066D 17081.82576566 .00000790 00000-0 37798-4 0 9996 2 41844 097.4069 090.2969 0016068 174.8703 309.0662 15.21785374020207 CAS-2T 1 41845U 16066E 17081.89155843 -.00000067 00000-0 00000-0 0 9995 2 41845 098.7815 095.4487 0367551 144.1944 218.4499 14.37710872019099 Pegasus-1 1 41846U 16066F 17081.69074286 -.00000067 00000-0 00000-0 0 9995 2 41846 098.7846 095.1078 0372669 145.8559 216.7213 14.36906280019053 STARS-C 1 41895U 98067KR 17081.44988332 .00012540 00000-0 17437-3 0 9992 2 41895 051.6480 109.5544 0005612 005.2720 354.8332 15.57377414014457 Tancredo 1 1 41931U 98067KT 17081.49544658 .00024353 00000-0 30961-3 0 9999 2 41931 051.6418 109.1000 0008692 328.2552 031.7938 15.59200034010032 ITF-2 1 41932U 98067KU 17081.93736649 .00009721 00000-0 14100-3 0 9991 2 41932 051.6466 107.5546 0006307 320.8124 039.2542 15.56533535010099 AOBA-V3LOX3 1 41935U 98067KX 17081.42462821 .00009999 00000-0 14463-3 0 9995 2 41935 051.6493 110.1311 0005659 323.0739 036.9864 15.56574246010116 OSNSAT 1 41939U 98067KZ 17081.45273607 .00018119 00000-0 24195-3 0 9991 2 41939 051.6501 109.5693 0007973 321.6492 038.3942 15.58106959009379 EO-88 1 42017U 17008BX 17081.89300670 .00001404 00000-0 63567-4 0 9990 2 42017 097.5052 143.4901 0007452 150.5200 209.6476 15.22553591005363 /EX